Weather History for KNSI - November, 2011

Change the Weather History Date:

Tuesday, November 22, 2011

  Actual Average Record
Temperature  
Mean Temperature 51 °F -  
Max Temperature 57 °F 61 °F 73 °F (2012)
Min Temperature 45 °F 51 °F 44 °F (2004)
Degree Days  
Heating Degree Days 14    
Growing Degree Days 1 (Base 50)    
Moisture  
Dew Point 46 °F    
Average Humidity 85    
Maximum Humidity 93    
Minimum Humidity 67    
Precipitation  
Precipitation 0.00 in - - ()
Sea Level Pressure  
Sea Level Pressure 30.19 in    
Wind  
Wind Speed 8 mph (NW)    
Max Wind Speed 10 mph    
Max Gust Speed -    
Visibility 9 miles    
Events      
Averages and records for this station are not official NWS values.
T = Trace of Precipitation, MM = Missing Value Source: NWS Daily Summary

Daily Weather History Graph

Daily Weather History Graph

Search for Another Location

Airport or City:

Trip Planner

Search our weather history database for the weather conditions in past years. The results will help you decide how hot, cold, wet, or windy it might be!

Date:

Astronomy

Nov. 22, 2011 Rise Set
Actual Time 6:35 AM PST 4:52 PM PST
Civil Twilight 6:08 AM PST 5:19 PM PST
Nautical Twilight 5:38 AM PST 5:49 PM PST
Astronomical Twilight 5:08 AM PST 6:19 PM PST
Moon 3:37 AM PST (11/22) 2:50 PM PST (11/22)
Length of Visible Light 11h 10m
Length of Day
10h 17m
Waning Crescent, 9% of the Moon is Illuminated
Nov 22
Waning Crescent
Nov 24
New
Dec 2
First Quarter
Dec 10
Full
Dec 17
Last Quarter

Hourly Weather History & Observations

Time (PST) Temp. Windchill Dew Point Humidity Pressure Visibility Wind Dir Wind Speed Gust Speed Precip Events Conditions
12:53 AM 46.9 °F - 45.0 °F 93% 30.25 in 10.0 mi North - - N/A   Clear
1:53 AM 46.9 °F - 45.0 °F 93% 30.24 in 10.0 mi North - - N/A   Clear
2:53 AM 46.0 °F - 44.1 °F 93% 30.24 in 10.0 mi North - - N/A   Clear
3:53 AM 45.0 °F - 43.0 °F 93% 30.23 in 10.0 mi North - - N/A   Clear
4:53 AM 45.0 °F - 43.0 °F 93% 30.24 in 10.0 mi North - - N/A   Partly Cloudy
5:53 AM 46.0 °F 42.5 °F 44.1 °F 93% 30.25 in 7.0 mi WNW 6.9 mph - N/A   Scattered Clouds
6:53 AM 46.0 °F 42.5 °F 44.1 °F 93% 30.26 in 7.0 mi WNW 6.9 mph - N/A   Scattered Clouds
7:53 AM 53.1 °F - 48.9 °F 86% 30.27 in 7.0 mi WNW 9.2 mph - N/A   Scattered Clouds
8:53 AM 55.0 °F - 48.9 °F 80% 30.28 in 7.0 mi NW 9.2 mph - N/A   Partly Cloudy
9:53 AM 55.9 °F - 48.9 °F 77% 30.27 in 7.0 mi NNW 10.4 mph - N/A   Partly Cloudy
10:53 AM 57.0 °F - 48.0 °F 72% 30.25 in 7.0 mi NW 6.9 mph - N/A   Partly Cloudy
11:53 AM 57.0 °F - 48.9 °F 74% 30.22 in 7.0 mi NNW 8.1 mph - N/A   Scattered Clouds
12:53 PM 57.0 °F - 48.9 °F 74% 30.19 in 7.0 mi NNW 8.1 mph - N/A   Partly Cloudy
1:53 PM 57.0 °F - 48.0 °F 72% 30.17 in 7.0 mi NW 6.9 mph - N/A   Scattered Clouds
2:53 PM 57.9 °F - 46.9 °F 67% 30.14 in 7.0 mi Variable 3.5 mph - N/A   Scattered Clouds
3:53 PM 55.0 °F - 48.0 °F 77% 30.14 in 7.0 mi WNW 5.8 mph - N/A   Scattered Clouds
4:53 PM 50.0 °F - 46.0 °F 86% 30.13 in 10.0 mi North - - N/A   Clear
5:53 PM 50.0 °F - 43.0 °F 77% 30.14 in 10.0 mi North - - N/A   Clear
6:53 PM 46.9 °F - 42.1 °F 83% 30.14 in 10.0 mi North - - N/A   Clear
7:53 PM 46.9 °F - 45.0 °F 93% 30.14 in 10.0 mi North - - N/A   Clear
8:53 PM 48.0 °F - 46.0 °F 93% 30.14 in 10.0 mi North - - N/A   Clear
9:53 PM 48.0 °F - 46.0 °F 93% 30.13 in 10.0 mi North - - N/A   Clear
10:53 PM 48.0 °F - 46.0 °F 93% 30.12 in 10.0 mi North - - N/A   Clear
11:53 PM 48.9 °F - 46.9 °F 93% 30.10 in 10.0 mi North - - N/A   Clear